Time,TemperatureF,DewpointF,PressureIn,WindDirection,WindDirectionDegrees,WindSpeedMPH,WindSpeedGustMPH,Humidity,HourlyPrecipIn,Conditions,Clouds,dailyrainin,SoftwareType,DateUTC
2013-01-31 00:17:00,55.3,53.0,29.23,SSW,198,5.0,9.0,93,0.24,,,0.06,weatherlink.com 1.10,2013-01-31 05:17:00,
2013-01-31 00:32:00,55.0,53.0,29.21,SSE,163,1.0,10.0,94,0.28,,,0.14,weatherlink.com 1.10,2013-01-31 05:32:00,
2013-01-31 00:47:00,54.6,53.0,29.25,SW,228,6.0,16.0,95,0.24,,,0.19,weatherlink.com 1.10,2013-01-31 05:47:00,
2013-01-31 01:02:00,54.3,53.0,29.22,WSW,249,4.0,13.0,94,0.21,,,0.22,weatherlink.com 1.10,2013-01-31 06:02:00,
2013-01-31 01:17:00,54.3,52.0,29.19,SE,133,0.0,6.0,93,0.16,,,0.22,weatherlink.com 1.10,2013-01-31 06:17:00,
2013-01-31 01:32:00,54.1,52.0,29.21,SW,225,2.0,5.0,92,0.09,,,0.24,weatherlink.com 1.10,2013-01-31 06:32:00,
2013-01-31 01:47:00,-999.0,-99.9,29.21,North,-999,-999.0,-999.0,-999,0.05,,,0.24,weatherlink.com 1.10,2013-01-31 06:47:00,
2013-01-31 02:02:00,-999.0,-99.9,29.20,North,-999,-999.0,-999.0,-999,0.02,,,0.24,weatherlink.com 1.10,2013-01-31 07:02:00,
2013-01-31 02:17:00,-999.0,-99.9,29.19,North,-999,-999.0,-999.0,-999,0.02,,,0.24,weatherlink.com 1.10,2013-01-31 07:17:00,
2013-01-31 02:32:00,-999.0,-99.9,29.18,North,-999,-999.0,-999.0,-999,0.00,,,0.24,weatherlink.com 1.10,2013-01-31 07:32:00,
2013-01-31 02:47:00,-999.0,-99.9,29.22,North,-999,-999.0,-999.0,-999,0.00,,,0.24,weatherlink.com 1.10,2013-01-31 07:47:00,
2013-01-31 03:03:00,-999.0,-99.9,29.20,North,-999,-999.0,-999.0,-999,0.00,,,0.24,weatherlink.com 1.10,2013-01-31 08:03:00,
2013-01-31 03:18:00,-999.0,-99.9,29.22,North,-999,-999.0,-999.0,-999,0.00,,,0.24,weatherlink.com 1.10,2013-01-31 08:18:00,
2013-01-31 03:33:00,-999.0,-99.9,29.25,North,-999,-999.0,-999.0,-999,0.00,,,0.24,weatherlink.com 1.10,2013-01-31 08:33:00,
2013-01-31 03:48:00,-999.0,-99.9,29.27,North,-999,-999.0,-999.0,-999,0.00,,,0.24,weatherlink.com 1.10,2013-01-31 08:48:00,
2013-01-31 04:03:00,-999.0,-99.9,29.28,North,-999,-999.0,-999.0,-999,0.00,,,0.24,weatherlink.com 1.10,2013-01-31 09:03:00,
2013-01-31 04:18:00,-999.0,-99.9,29.28,North,-999,-999.0,-999.0,-999,0.00,,,0.24,weatherlink.com 1.10,2013-01-31 09:18:00,
2013-01-31 04:33:00,-999.0,-99.9,29.29,North,-999,-999.0,-999.0,-999,0.00,,,0.24,weatherlink.com 1.10,2013-01-31 09:33:00,
2013-01-31 04:48:00,-999.0,-99.9,29.31,North,-999,-999.0,-999.0,-999,0.00,,,0.24,weatherlink.com 1.10,2013-01-31 09:48:00,
2013-01-31 05:03:00,-999.0,-99.9,29.33,North,-999,-999.0,-999.0,-999,0.00,,,0.24,weatherlink.com 1.10,2013-01-31 10:03:00,
2013-01-31 05:18:00,-999.0,-99.9,29.36,North,-999,-999.0,-999.0,-999,0.00,,,0.24,weatherlink.com 1.10,2013-01-31 10:18:00,
2013-01-31 05:33:00,-999.0,-99.9,29.38,North,-999,-999.0,-999.0,-999,0.00,,,0.24,weatherlink.com 1.10,2013-01-31 10:33:00,
2013-01-31 05:48:00,-999.0,-99.9,29.41,North,-999,-999.0,-999.0,-999,0.00,,,0.24,weatherlink.com 1.10,2013-01-31 10:48:00,
2013-01-31 06:03:00,-999.0,-99.9,29.43,North,-999,-999.0,-999.0,-999,0.00,,,0.24,weatherlink.com 1.10,2013-01-31 11:03:00,
2013-01-31 06:19:00,-999.0,-99.9,29.45,North,-999,-999.0,-999.0,-999,0.00,,,0.24,weatherlink.com 1.10,2013-01-31 11:19:00,
2013-01-31 06:34:00,-999.0,-99.9,29.46,North,-999,-999.0,-999.0,-999,0.00,,,0.24,weatherlink.com 1.10,2013-01-31 11:34:00,
2013-01-31 06:49:00,-999.0,-99.9,29.48,North,-999,-999.0,-999.0,-999,0.00,,,0.24,weatherlink.com 1.10,2013-01-31 11:49:00,
2013-01-31 07:04:00,-999.0,-99.9,29.49,North,-999,-999.0,-999.0,-999,0.00,,,0.24,weatherlink.com 1.10,2013-01-31 12:04:00,
2013-01-31 07:19:00,-999.0,-99.9,29.50,North,-999,-999.0,-999.0,-999,0.00,,,0.24,weatherlink.com 1.10,2013-01-31 12:19:00,
2013-01-31 07:34:00,-999.0,-99.9,29.51,North,-999,-999.0,-999.0,-999,0.00,,,0.24,weatherlink.com 1.10,2013-01-31 12:34:00,
2013-01-31 07:49:00,-999.0,-99.9,29.52,North,-999,-999.0,-999.0,-999,0.00,,,0.24,weatherlink.com 1.10,2013-01-31 12:49:00,
2013-01-31 08:04:00,-999.0,-99.9,29.53,North,-999,-999.0,-999.0,-999,0.00,,,0.24,weatherlink.com 1.10,2013-01-31 13:04:00,
2013-01-31 08:19:00,-999.0,-99.9,29.54,North,-999,-999.0,-999.0,-999,0.00,,,0.24,weatherlink.com 1.10,2013-01-31 13:19:00,
2013-01-31 08:34:00,-999.0,-99.9,29.54,North,-999,-999.0,-999.0,-999,0.00,,,0.24,weatherlink.com 1.10,2013-01-31 13:34:00,
2013-01-31 08:49:00,-999.0,-99.9,29.55,North,-999,-999.0,-999.0,-999,0.00,,,0.24,weatherlink.com 1.10,2013-01-31 13:49:00,
2013-01-31 09:04:00,-999.0,-99.9,29.56,North,-999,-999.0,-999.0,-999,0.00,,,0.24,weatherlink.com 1.10,2013-01-31 14:04:00,
2013-01-31 09:19:00,-999.0,-99.9,29.57,North,-999,-999.0,-999.0,-999,0.00,,,0.24,weatherlink.com 1.10,2013-01-31 14:19:00,
2013-01-31 09:34:00,-999.0,-99.9,29.58,North,-999,-999.0,-999.0,-999,0.00,,,0.24,weatherlink.com 1.10,2013-01-31 14:34:00,
2013-01-31 09:50:00,-999.0,-99.9,29.60,North,-999,-999.0,-999.0,-999,0.00,,,0.24,weatherlink.com 1.10,2013-01-31 14:50:00,
2013-01-31 10:05:00,-999.0,-99.9,29.60,North,-999,-999.0,-999.0,-999,0.00,,,0.24,weatherlink.com 1.10,2013-01-31 15:05:00,
2013-01-31 10:20:00,-999.0,-99.9,29.62,North,-999,-999.0,-999.0,-999,0.00,,,0.24,weatherlink.com 1.10,2013-01-31 15:20:00,
2013-01-31 10:35:00,-999.0,-99.9,29.63,North,-999,-999.0,-999.0,-999,0.00,,,0.24,weatherlink.com 1.10,2013-01-31 15:35:00,
2013-01-31 10:50:00,-999.0,-99.9,29.63,North,-999,-999.0,-999.0,-999,0.00,,,0.24,weatherlink.com 1.10,2013-01-31 15:50:00,
2013-01-31 11:05:00,-999.0,-99.9,29.63,North,-999,-999.0,-999.0,-999,0.00,,,0.24,weatherlink.com 1.10,2013-01-31 16:05:00,
2013-01-31 11:20:00,-999.0,-99.9,29.64,North,-999,-999.0,-999.0,-999,0.00,,,0.24,weatherlink.com 1.10,2013-01-31 16:20:00,
2013-01-31 11:35:00,-999.0,-99.9,29.65,North,-999,-999.0,-999.0,-999,0.00,,,0.24,weatherlink.com 1.10,2013-01-31 16:35:00,
2013-01-31 11:50:00,-999.0,-99.9,29.65,North,-999,-999.0,-999.0,-999,0.00,,,0.24,weatherlink.com 1.10,2013-01-31 16:50:00,
2013-01-31 12:05:00,-999.0,-99.9,29.65,North,-999,-999.0,-999.0,-999,0.00,,,0.24,weatherlink.com 1.10,2013-01-31 17:05:00,
2013-01-31 12:20:00,-999.0,-99.9,29.66,North,-999,-999.0,-999.0,-999,0.00,,,0.24,weatherlink.com 1.10,2013-01-31 17:20:00,
2013-01-31 12:35:00,-999.0,-99.9,29.67,North,-999,-999.0,-999.0,-999,0.00,,,0.24,weatherlink.com 1.10,2013-01-31 17:35:00,
2013-01-31 12:50:00,-999.0,-99.9,29.67,North,-999,-999.0,-999.0,-999,0.00,,,0.24,weatherlink.com 1.10,2013-01-31 17:50:00,
2013-01-31 13:05:00,-999.0,-99.9,29.67,North,-999,-999.0,-999.0,-999,0.00,,,0.24,weatherlink.com 1.10,2013-01-31 18:05:00,
2013-01-31 13:21:00,-999.0,-99.9,29.68,North,-999,-999.0,-999.0,-999,0.00,,,0.24,weatherlink.com 1.10,2013-01-31 18:21:00,
2013-01-31 13:36:00,-999.0,-99.9,29.69,North,-999,-999.0,-999.0,-999,0.00,,,0.24,weatherlink.com 1.10,2013-01-31 18:36:00,
2013-01-31 13:51:00,-999.0,-99.9,29.70,North,-999,-999.0,-999.0,-999,0.00,,,0.24,weatherlink.com 1.10,2013-01-31 18:51:00,
2013-01-31 14:06:00,-999.0,-99.9,29.70,North,-999,-999.0,-999.0,-999,0.00,,,0.24,weatherlink.com 1.10,2013-01-31 19:06:00,
2013-01-31 14:21:00,-999.0,-99.9,29.70,North,-999,-999.0,-999.0,-999,0.00,,,0.24,weatherlink.com 1.10,2013-01-31 19:21:00,
2013-01-31 14:36:00,-999.0,-99.9,29.70,North,-999,-999.0,-999.0,-999,0.00,,,0.24,weatherlink.com 1.10,2013-01-31 19:36:00,
2013-01-31 14:51:00,-999.0,-99.9,29.71,North,-999,-999.0,-999.0,-999,0.00,,,0.24,weatherlink.com 1.10,2013-01-31 19:51:00,
2013-01-31 15:06:00,-999.0,-99.9,29.72,North,-999,-999.0,-999.0,-999,0.00,,,0.24,weatherlink.com 1.10,2013-01-31 20:06:00,
2013-01-31 15:21:00,-999.0,-99.9,29.73,North,-999,-999.0,-999.0,-999,0.00,,,0.24,weatherlink.com 1.10,2013-01-31 20:21:00,
2013-01-31 15:36:00,-999.0,-99.9,29.74,North,-999,-999.0,-999.0,-999,0.00,,,0.24,weatherlink.com 1.10,2013-01-31 20:36:00,
2013-01-31 15:51:00,-999.0,-99.9,29.74,North,-999,-999.0,-999.0,-999,0.00,,,0.24,weatherlink.com 1.10,2013-01-31 20:51:00,
2013-01-31 16:06:00,-999.0,-99.9,29.74,North,-999,-999.0,-999.0,-999,0.00,,,0.24,weatherlink.com 1.10,2013-01-31 21:06:00,
2013-01-31 16:21:00,-999.0,-99.9,29.75,North,-999,-999.0,-999.0,-999,0.00,,,0.24,weatherlink.com 1.10,2013-01-31 21:21:00,
2013-01-31 16:36:00,-999.0,-99.9,29.76,North,-999,-999.0,-999.0,-999,0.00,,,0.24,weatherlink.com 1.10,2013-01-31 21:36:00,
2013-01-31 16:52:00,-999.0,-99.9,29.77,North,-999,-999.0,-999.0,-999,0.00,,,0.24,weatherlink.com 1.10,2013-01-31 21:52:00,
2013-01-31 17:07:00,-999.0,-99.9,29.78,North,-999,-999.0,-999.0,-999,0.00,,,0.24,weatherlink.com 1.10,2013-01-31 22:07:00,
2013-01-31 17:22:00,-999.0,-99.9,29.79,North,-999,-999.0,-999.0,-999,0.00,,,0.24,weatherlink.com 1.10,2013-01-31 22:22:00,
2013-01-31 17:37:00,-999.0,-99.9,29.81,North,-999,-999.0,-999.0,-999,0.00,,,0.24,weatherlink.com 1.10,2013-01-31 22:37:00,
2013-01-31 17:52:00,-999.0,-99.9,29.82,North,-999,-999.0,-999.0,-999,0.00,,,0.24,weatherlink.com 1.10,2013-01-31 22:52:00,
2013-01-31 18:07:00,-999.0,-99.9,29.84,North,-999,-999.0,-999.0,-999,0.00,,,0.24,weatherlink.com 1.10,2013-01-31 23:07:00,
2013-01-31 18:22:00,-999.0,-99.9,29.86,North,-999,-999.0,-999.0,-999,0.00,,,0.24,weatherlink.com 1.10,2013-01-31 23:22:00,
2013-01-31 18:37:00,-999.0,-99.9,29.87,North,-999,-999.0,-999.0,-999,0.00,,,0.24,weatherlink.com 1.10,2013-01-31 23:37:00,
2013-01-31 18:52:00,-999.0,-99.9,29.86,North,-999,-999.0,-999.0,-999,0.00,,,0.24,weatherlink.com 1.10,2013-01-31 23:52:00,
2013-01-31 19:07:00,-999.0,-99.9,29.87,North,-999,-999.0,-999.0,-999,0.00,,,0.24,weatherlink.com 1.10,2013-02-01 00:07:00,
2013-01-31 19:22:00,-999.0,-99.9,29.87,North,-999,-999.0,-999.0,-999,0.00,,,0.24,weatherlink.com 1.10,2013-02-01 00:22:00,
2013-01-31 19:37:00,28.5,8.0,29.87,West,271,5.0,15.0,43,0.00,,,0.24,weatherlink.com 1.10,2013-02-01 00:37:00,
2013-01-31 19:52:00,28.3,9.0,29.87,WSW,252,6.0,16.0,44,0.00,,,0.24,weatherlink.com 1.10,2013-02-01 00:52:00,
2013-01-31 20:07:00,28.4,8.0,29.87,WSW,257,8.0,15.0,42,0.00,,,0.24,weatherlink.com 1.10,2013-02-01 01:07:00,
2013-01-31 20:22:00,28.3,8.0,29.87,WSW,245,6.0,9.0,43,0.00,,,0.24,weatherlink.com 1.10,2013-02-01 01:22:00,
2013-01-31 20:37:00,28.0,9.0,29.86,SW,222,5.0,6.0,44,0.00,,,0.24,weatherlink.com 1.10,2013-02-01 01:37:00,
2013-01-31 20:52:00,27.8,8.0,29.86,WSW,253,4.0,10.0,44,0.00,,,0.24,weatherlink.com 1.10,2013-02-01 01:52:00,
2013-01-31 21:07:00,28.0,9.0,29.86,WSW,246,5.0,12.0,45,0.00,,,0.24,weatherlink.com 1.10,2013-02-01 02:07:00,
2013-01-31 21:22:00,27.9,9.0,29.86,WSW,246,3.0,9.0,45,0.00,,,0.24,weatherlink.com 1.10,2013-02-01 02:22:00,
2013-01-31 21:37:00,27.7,9.0,29.87,South,170,4.0,9.0,46,0.00,,,0.24,weatherlink.com 1.10,2013-02-01 02:37:00,
2013-01-31 21:52:00,27.7,10.0,29.87,SSE,165,1.0,9.0,47,0.00,,,0.24,weatherlink.com 1.10,2013-02-01 02:52:00,
2013-01-31 22:23:00,28.3,10.0,29.88,WSW,248,2.0,15.0,47,0.00,,,0.24,weatherlink.com 1.10,2013-02-01 03:23:00,
2013-01-31 22:38:00,28.3,11.0,29.88,WSW,240,4.0,13.0,48,0.00,,,0.24,weatherlink.com 1.10,2013-02-01 03:38:00,
2013-01-31 23:08:00,28.6,12.0,29.87,West,276,12.0,12.0,50,0.00,,,0.24,weatherlink.com 1.10,2013-02-01 04:08:00,
2013-01-31 23:23:00,28.8,12.0,29.86,WNW,303,4.0,14.0,49,0.00,,,0.24,weatherlink.com 1.10,2013-02-01 04:23:00,
2013-01-31 23:38:00,28.7,12.0,29.87,WNW,287,3.0,12.0,49,0.00,,,0.24,weatherlink.com 1.10,2013-02-01 04:38:00,
2013-01-31 23:53:00,28.3,12.0,29.86,WSW,253,1.0,7.0,50,0.00,,,0.24,weatherlink.com 1.10,2013-02-01 04:53:00,